Weather History for Fort Rucker / Ozark, AL

Change the Weather History Date:

Sunday, October 7, 2012

  Actual Average (KDHN) Record (KDHN)
Temperature  
Mean Temperature 70 °F 70 °F  
Max Temperature 79 °F 82 °F 92 °F (1951)
Min Temperature 57 °F 58 °F 44 °F (1964)
Degree Days  
Heating Degree Days 0 1  
Month to date heating degree days 2  
Since 1 July heating degree days 4  
Cooling Degree Days 4 6  
Month to date cooling degree days 47  
Year to date cooling degree days 2275  
Growing Degree Days 20 (Base 50)    
Moisture  
Dew Point 60 °F    
Average Humidity 80    
Maximum Humidity 94    
Minimum Humidity 58    
Precipitation  
Precipitation 0.00 in 0.11 in 1.96 in (1931)
Month to date precipitation 0.76  
Year to date precipitation 42.74  
Sea Level Pressure  
Sea Level Pressure 30.02 in    
Wind  
Wind Speed 4 mph (North)    
Max Wind Speed 8 mph    
Max Gust Speed -    
Visibility 9 miles    
Events      
T = Trace of Precipitation, MM = Missing Value Source: NWS Daily Summary

Daily Weather History Graph

Daily Weather History Graph

Search for Another Location

Airport:

Trip Planner

Search our weather history database for the weather conditions in past years. The results will help you decide how hot, cold, wet, or windy it might be!

Date:

Astronomy

Oct. 07, 2012 Rise Set
Actual Time 6:40 AM CDT 6:19 PM CDT
Civil Twilight 6:16 AM CDT 6:44 PM CDT
Nautical Twilight 5:48 AM CDT 7:12 PM CDT
Astronomical Twilight 5:20 AM CDT 7:40 PM CDT
Moon 11:45 PM CDT (10/7) 1:02 PM CDT (10/7)
Length of Visible Light 12h 27m
Length of Day
11h 39m
Waning Gibbous, 56% of the Moon is Illuminated
Oct 7
Waning Gibbous
Oct 8
Last Quarter
Oct 15
New
Oct 21
First Quarter
Oct 29
Full

Hourly Weather History & Observations

Time (CDT) Temp. Dew Point Humidity Pressure Visibility Wind Dir Wind Speed Gust Speed Precip Events Conditions
12:53 AM 68.0 °F 64.0 °F 87% 29.97 in 8.0 mi Calm Calm - N/A   Clear
1:53 AM 66.9 °F 64.0 °F 90% 29.98 in 8.0 mi Calm Calm - N/A   Clear
2:53 AM 64.9 °F 62.1 °F 90% 29.98 in 8.0 mi North 3.5 mph - N/A   Clear
3:53 AM 64.0 °F 62.1 °F 93% 29.98 in 9.0 mi North 4.6 mph - N/A   Clear
4:53 AM 63.0 °F 60.1 °F 90% 29.99 in 10.0 mi North 3.5 mph - N/A   Clear
5:53 AM 62.1 °F 59.0 °F 90% 30.00 in 8.0 mi North 3.5 mph - N/A   Clear
6:21 AM 60.8 °F 59.0 °F 94% 30.01 in 7.0 mi NNW 3.5 mph - N/A   Partly Cloudy
6:42 AM 60.8 °F 59.0 °F 94% 30.01 in 6.0 mi Calm Calm - N/A   Mostly Cloudy
6:53 AM 61.0 °F 59.0 °F 93% 30.01 in 5.0 mi Calm Calm - N/A   Scattered Clouds
7:53 AM 62.1 °F 59.0 °F 90% 30.03 in 5.0 mi NNW 5.8 mph - N/A   Mostly Cloudy
8:53 AM 63.0 °F 60.1 °F 90% 30.05 in 5.0 mi North 6.9 mph - N/A   Overcast
9:53 AM 63.0 °F 59.0 °F 87% 30.07 in 5.0 mi NNW 6.9 mph - N/A   Overcast
10:53 AM 66.0 °F 60.1 °F 81% 30.07 in 8.0 mi Variable 6.9 mph - N/A   Overcast
11:21 AM 66.2 °F 60.8 °F 83% 30.07 in 10.0 mi NW 6.9 mph - N/A   Overcast
11:53 AM 71.1 °F 60.1 °F 68% 30.05 in 10.0 mi Variable 4.6 mph - N/A   Mostly Cloudy
12:02 PM 71.6 °F 60.8 °F 69% 30.06 in 10.0 mi NW 5.8 mph - N/A   Scattered Clouds
12:53 PM 73.9 °F 61.0 °F 64% 30.03 in 10.0 mi NNW 8.1 mph - N/A   Clear
1:53 PM 78.1 °F 63.0 °F 60% 29.99 in 10.0 mi Variable 5.8 mph - N/A   Clear
2:53 PM 79.0 °F 63.0 °F 58% 29.98 in 10.0 mi NNW 8.1 mph - N/A   Clear
3:53 PM 78.1 °F 62.1 °F 58% 29.97 in 10.0 mi North 6.9 mph - N/A   Clear
4:53 PM 77.0 °F 62.1 °F 60% 29.98 in 10.0 mi North 6.9 mph - N/A   Scattered Clouds
5:53 PM 72.0 °F 62.1 °F 71% 29.99 in 10.0 mi NNW 4.6 mph - N/A   Mostly Cloudy
6:53 PM 69.1 °F 61.0 °F 75% 30.01 in 10.0 mi North 5.8 mph - N/A   Scattered Clouds
7:53 PM 66.9 °F 59.0 °F 76% 30.02 in 10.0 mi North 5.8 mph - N/A   Clear
8:53 PM 64.9 °F 57.9 °F 78% 30.05 in 10.0 mi North 5.8 mph - N/A   Clear
9:53 PM 62.1 °F 55.9 °F 80% 30.06 in 10.0 mi North 6.9 mph - N/A   Clear
10:53 PM 60.1 °F 54.0 °F 80% 30.06 in 10.0 mi North 4.6 mph - N/A   Clear
11:53 PM 57.9 °F 53.1 °F 84% 30.05 in 10.0 mi NNE 4.6 mph - N/A   Clear